Stündliche Wetter Kyzylagash

Heute, 8 Mai, Samstag

Zeit Temperatur Niederschläge Wind Luftdruck Luftfeuchtigkeit
00:00 +13°C° 0 mm 2 m/S 743 mmHg 41%
01:00 +12°C° 0 mm 2 m/S 743 mmHg 42%
02:00 +12°C° 0 mm 2 m/S 743 mmHg 44%
03:00 +10°C° 0 mm 2 m/S 743 mmHg 45%
04:00 +10°C° 0 mm 2 m/S 743 mmHg 46%
05:00 +9°C° 0 mm 3 m/S 743 mmHg 47%
06:00 +11°C° 0 mm 3 m/S 743 mmHg 43%
07:00 +13°C° 0 mm 3 m/S 743 mmHg 38%
08:00 +16°C° 0 mm 3 m/S 743 mmHg 34%
09:00 +18°C° 0 mm 3 m/S 742 mmHg 31%
10:00 +19°C° 0 mm 3 m/S 742 mmHg 27%
11:00 +21°C° 0 mm 3 m/S 742 mmHg 24%
12:00 +21°C° 0 mm 3 m/S 741 mmHg 23%
13:00 +22°C° 0 mm 4 m/S 741 mmHg 21%
14:00 +23°C° 0 mm 4 m/S 740 mmHg 19%
15:00 +23°C° 0 mm 4 m/S 740 mmHg 19%
16:00 +23°C° 0 mm 4 m/S 739 mmHg 19%
17:00 +23°C° 0 mm 4 m/S 739 mmHg 19%
18:00 +21°C° 0 mm 3 m/S 739 mmHg 23%
19:00 +20°C° 0 mm 3 m/S 738 mmHg 27%
20:00 +19°C° 0 mm 3 m/S 738 mmHg 32%
21:00 +17°C° 0 mm 3 m/S 738 mmHg 42%
22:00 +16°C° 0 mm 3 m/S 738 mmHg 53%
23:00 +14°C° 0 mm 3 m/S 738 mmHg 64%

Morgen, 9 Mai, Sonntag

Zeit Temperatur Niederschläge Wind Luftdruck Luftfeuchtigkeit
00:00 +14°C° 0 mm 3 m/S 737 mmHg 69%
01:00 +13°C° 0 mm 4 m/S 737 mmHg 73%
02:00 +13°C° 0 mm 5 m/S 737 mmHg 78%
03:00 +13°C° 0 mm 5 m/S 736 mmHg 75%
04:00 +13°C° 0 mm 5 m/S 736 mmHg 72%
05:00 +14°C° 0 mm 6 m/S 736 mmHg 69%
06:00 +14°C° 0 mm 6 m/S 736 mmHg 72%
07:00 +13°C° 0 mm 6 m/S 736 mmHg 75%
08:00 +12°C° 0 mm 7 m/S 736 mmHg 78%
09:00 +15°C° 0 mm 7 m/S 736 mmHg 68%
10:00 +16°C° 0 mm 7 m/S 736 mmHg 58%
11:00 +18°C° 0 mm 8 m/S 736 mmHg 48%
12:00 +18°C° 0 mm 8 m/S 736 mmHg 46%
13:00 +19°C° 0 mm 9 m/S 736 mmHg 43%
14:00 +19°C° 0 mm 9 m/S 736 mmHg 41%
15:00 +19°C° 0 mm 9 m/S 735 mmHg 40%
16:00 +19°C° 0 mm 9 m/S 735 mmHg 39%
17:00 +19°C° 0 mm 10 m/S 735 mmHg 39%
18:00 +18°C° 0 mm 9 m/S 735 mmHg 44%
19:00 +18°C° 0 mm 9 m/S 736 mmHg 49%
20:00 +17°C° 0 mm 8 m/S 736 mmHg 54%
21:00 +16°C° 0.2 mm 9 m/S 736 mmHg 56%
22:00 +15°C° 0.2 mm 9 m/S 736 mmHg 57%
23:00 +13°C° 0.2 mm 9 m/S 737 mmHg 59%

übermorgen, 10 Mai, Montag

Zeit Temperatur Niederschläge Wind Luftdruck Luftfeuchtigkeit
00:00 +12°C° 1.1 mm 9 m/S 737 mmHg 65%
01:00 +11°C° 1.1 mm 9 m/S 737 mmHg 71%
02:00 +8°C° 1.1 mm 9 m/S 737 mmHg 77%
03:00 +8°C° 1.1 mm 9 m/S 737 mmHg 79%
04:00 +7°C° 1.1 mm 8 m/S 738 mmHg 81%
05:00 +7°C° 1.1 mm 8 m/S 738 mmHg 83%
06:00 +6°C° 0.9 mm 8 m/S 739 mmHg 81%
07:00 +6°C° 0.9 mm 7 m/S 739 mmHg 80%
08:00 +6°C° 0.9 mm 7 m/S 740 mmHg 78%
09:00 +9°C° 0 mm 7 m/S 740 mmHg 69%
10:00 +10°C° 0 mm 7 m/S 741 mmHg 60%
11:00 +12°C° 0 mm 7 m/S 741 mmHg 50%
12:00 +14°C° 0 mm 7 m/S 741 mmHg 45%
13:00 +15°C° 0 mm 7 m/S 741 mmHg 40%
14:00 +17°C° 0 mm 7 m/S 742 mmHg 34%
15:00 +17°C° 0 mm 7 m/S 742 mmHg 32%
16:00 +17°C° 0 mm 7 m/S 742 mmHg 29%
17:00 +17°C° 0 mm 7 m/S 742 mmHg 27%
18:00 +15°C° 0 mm 6 m/S 742 mmHg 30%
19:00 +14°C° 0 mm 6 m/S 743 mmHg 33%
20:00 +13°C° 0 mm 5 m/S 743 mmHg 37%
21:00 +12°C° 0 mm 4 m/S 743 mmHg 41%
22:00 +11°C° 0 mm 4 m/S 744 mmHg 44%
23:00 +10°C° 0 mm 4 m/S 744 mmHg 48%

11 Mai, Dienstag

Zeit Temperatur Niederschläge Wind Luftdruck Luftfeuchtigkeit
00:00 +9°C° 0 mm 3 m/S 744 mmHg 52%
01:00 +9°C° 0 mm 3 m/S 745 mmHg 55%
02:00 +8°C° 0 mm 3 m/S 745 mmHg 59%
03:00 +8°C° 0 mm 2 m/S 745 mmHg 59%
04:00 +7°C° 0 mm 2 m/S 745 mmHg 60%
05:00 +7°C° 0 mm 2 m/S 746 mmHg 61%
06:00 +9°C° 0 mm 2 m/S 746 mmHg 57%
07:00 +10°C° 0 mm 3 m/S 746 mmHg 52%
08:00 +12°C° 0 mm 3 m/S 746 mmHg 47%
09:00 +13°C° 0 mm 3 m/S 746 mmHg 43%
10:00 +16°C° 0 mm 3 m/S 747 mmHg 39%
11:00 +17°C° 0 mm 3 m/S 747 mmHg 35%
12:00 +18°C° 0 mm 3 m/S 747 mmHg 32%
13:00 +18°C° 0 mm 3 m/S 746 mmHg 30%
14:00 +19°C° 0 mm 3 m/S 746 mmHg 28%
15:00 +19°C° 0 mm 2 m/S 746 mmHg 28%
16:00 +19°C° 0 mm 2 m/S 746 mmHg 27%
17:00 +20°C° 0 mm 2 m/S 746 mmHg 27%
18:00 +19°C° 0 mm 2 m/S 746 mmHg 31%
19:00 +18°C° 0 mm 2 m/S 746 mmHg 36%
20:00 +16°C° 0 mm 2 m/S 746 mmHg 40%
21:00 +16°C° 0 mm 2 m/S 746 mmHg 41%
22:00 +15°C° 0 mm 2 m/S 746 mmHg 41%
23:00 +15°C° 0 mm 2 m/S 746 mmHg 42%

12 Mai, Mittwoch

Zeit Temperatur Niederschläge Wind Luftdruck Luftfeuchtigkeit
00:00 +14°C° 0 mm 2 m/S 746 mmHg 44%
01:00 +14°C° 0 mm 2 m/S 745 mmHg 45%
02:00 +12°C° 0 mm 3 m/S 745 mmHg 46%
03:00 +12°C° 0 mm 3 m/S 745 mmHg 49%
04:00 +11°C° 0 mm 3 m/S 745 mmHg 51%
05:00 +10°C° 0 mm 3 m/S 745 mmHg 54%
06:00 +11°C° 0 mm 3 m/S 745 mmHg 52%
07:00 +12°C° 0 mm 4 m/S 745 mmHg 50%
08:00 +14°C° 0 mm 4 m/S 745 mmHg 48%
09:00 +14°C° 0 mm 5 m/S 745 mmHg 49%
10:00 +15°C° 0 mm 6 m/S 745 mmHg 50%
11:00 +16°C° 0 mm 7 m/S 745 mmHg 51%
12:00 +16°C° 0 mm 7 m/S 745 mmHg 45%
13:00 +16°C° 0 mm 7 m/S 745 mmHg 40%
14:00 +16°C° 0 mm 7 m/S 745 mmHg 34%
15:00 +16°C° 0 mm 7 m/S 745 mmHg 33%
16:00 +16°C° 0 mm 7 m/S 745 mmHg 32%
17:00 +16°C° 0 mm 7 m/S 745 mmHg 30%
18:00 +15°C° 0 mm 6 m/S 745 mmHg 32%
19:00 +14°C° 0 mm 5 m/S 745 mmHg 33%
20:00 +13°C° 0 mm 4 m/S 745 mmHg 35%
21:00 +12°C° 0 mm 4 m/S 745 mmHg 38%
22:00 +11°C° 0 mm 3 m/S 745 mmHg 41%
23:00 +10°C° 0 mm 3 m/S 745 mmHg 45%

13 Mai, Donnerstag

Zeit Temperatur Niederschläge Wind Luftdruck Luftfeuchtigkeit
00:00 +9°C° 0 mm 3 m/S 745 mmHg 48%
01:00 +8°C° 0 mm 3 m/S 745 mmHg 52%
02:00 +8°C° 0 mm 3 m/S 745 mmHg 55%
03:00 +7°C° 0 mm 3 m/S 745 mmHg 58%
04:00 +7°C° 0 mm 3 m/S 746 mmHg 61%
05:00 +5°C° 0 mm 3 m/S 746 mmHg 64%
06:00 +7°C° 0 mm 4 m/S 746 mmHg 60%
07:00 +8°C° 0 mm 5 m/S 746 mmHg 56%
08:00 +9°C° 0 mm 6 m/S 746 mmHg 52%
09:00 +11°C° 0 mm 6 m/S 746 mmHg 48%
10:00 +13°C° 0 mm 6 m/S 746 mmHg 44%
11:00 +14°C° 0 mm 6 m/S 747 mmHg 40%
12:00 +14°C° 0 mm 6 m/S 746 mmHg 40%
13:00 +15°C° 0 mm 5 m/S 746 mmHg 40%
14:00 +17°C° 0 mm 4 m/S 746 mmHg 41%
15:00 +17°C° 0 mm 4 m/S 746 mmHg 40%
16:00 +17°C° 0 mm 4 m/S 747 mmHg 40%
17:00 +17°C° 0 mm 3 m/S 747 mmHg 40%
18:00 +17°C° 0 mm 3 m/S 747 mmHg 44%
19:00 +16°C° 0 mm 2 m/S 747 mmHg 47%
20:00 +15°C° 0 mm 2 m/S 747 mmHg 50%
21:00 +14°C° 0 mm 2 m/S 747 mmHg 52%
22:00 +13°C° 0 mm 2 m/S 747 mmHg 53%
23:00 +13°C° 0 mm 1 m/S 748 mmHg 55%
Mehr zeigen

Wir brauchen deine Erlaubnis

Meteoprog und unser Service Anbieter werden persönliche Daten aufbewahren, so wie Cookies, Geräte Bezeichnung oder ähnliche Technologien von deinem Gerät und Prozess, so wie Persönliche Daten Inhalte und Werbungen, genauso wie social Media und den Verkehr zu analysieren.

  • Aufbewahrung und/oder Zugang zu deiner Geräte Informationen.

    Cookies, Geräte Bezeichnung oder andere Informationen, können aufbewahrt oder Zugang zu deinem Gerät erhalten, für den Grund, der oben angegeben wird.

  • Personalisierte Werbung und Inhalte, Messungen, Einblick in das Publikum und Produkt Entwicklung.

    Werbungen und Inhalte können personalisiert werden, basierend auf ein Profil. Mehr Daten können besser personalisierte Werbungen und Inhalte hinzufügen. Werbung und Inhalte können gezeigt und gemessen werden. Einblicke über das Publikum, welche die Werbung gesehen haben und den Inhalt, können abgeleitet werden. So wie Daten können genutzt werden, um es zu verbessern oder die Benutzer Erfahrung zu verbessern das System und die Software.

Wenn du “Ich stimme zu” klickst, erlaubst du uns, die Cookies zu benutzen die Geräte Bezeichnung, den Web oder ähnliche Technologien zu benutzen. Deine Settings, können in deinem Gerät bei deinem Browser geändert werden.

Für den bestimmten Zweck, berechtigten Interessen beruhen darauf, mehr als auf den Inhalt. Du kannst mehr darüber in unseren Privaten und Cookie Politik lesen.